TimeEST,TemperatureF,Dew PointF,Humidity,Sea Level PressureIn,VisibilityMPH,Wind Direction,Wind SpeedMPH,Gust SpeedMPH,PrecipitationIn,Events,Conditions,WindDirDegrees,DateUTC
12:56 AM,33.1,25.0,72,30.35,10.0,Calm,Calm,-,N/A,,Mostly Cloudy,0,2014-01-01 05:56:00
1:56 AM,30.9,25.0,79,30.36,10.0,Calm,Calm,-,N/A,,Mostly Cloudy,0,2014-01-01 06:56:00
2:56 AM,28.9,25.0,85,30.38,10.0,Calm,Calm,-,N/A,,Mostly Cloudy,0,2014-01-01 07:56:00
3:56 AM,33.1,28.9,85,30.37,10.0,Calm,Calm,-,N/A,,Mostly Cloudy,0,2014-01-01 08:56:00
4:56 AM,32.0,28.9,88,30.38,10.0,Calm,Calm,-,N/A,,Mostly Cloudy,0,2014-01-01 09:56:00
5:56 AM,30.9,28.0,89,30.40,10.0,Calm,Calm,-,N/A,,Mostly Cloudy,0,2014-01-01 10:56:00
6:56 AM,30.9,28.9,92,30.40,10.0,Calm,Calm,-,N/A,,Mostly Cloudy,0,2014-01-01 11:56:00
7:56 AM,36.0,30.0,79,30.42,10.0,East,4.6,-,N/A,,Mostly Cloudy,80,2014-01-01 12:56:00
8:56 AM,43.0,35.1,74,30.43,10.0,East,8.1,-,N/A,,Mostly Cloudy,90,2014-01-01 13:56:00
9:56 AM,46.0,37.0,71,30.43,10.0,ESE,9.2,-,N/A,,Mostly Cloudy,110,2014-01-01 14:56:00
10:56 AM,48.9,37.0,64,30.42,10.0,ESE,10.4,-,N/A,,Mostly Cloudy,120,2014-01-01 15:56:00
11:56 AM,50.0,36.0,59,30.38,10.0,SE,9.2,-,N/A,,Mostly Cloudy,140,2014-01-01 16:56:00
12:56 PM,52.0,37.0,57,30.35,10.0,South,9.2,-,N/A,,Mostly Cloudy,180,2014-01-01 17:56:00
1:56 PM,53.1,34.0,48,30.32,10.0,South,8.1,-,N/A,,Mostly Cloudy,190,2014-01-01 18:56:00
2:56 PM,52.0,33.1,49,30.31,10.0,SE,5.8,-,N/A,,Mostly Cloudy,130,2014-01-01 19:56:00
3:56 PM,50.0,33.1,52,30.30,10.0,SSE,5.8,-,N/A,,Mostly Cloudy,160,2014-01-01 20:56:00
4:56 PM,46.9,32.0,56,30.28,10.0,SSE,4.6,-,N/A,,Mostly Cloudy,160,2014-01-01 21:56:00
5:56 PM,45.0,34.0,65,30.27,10.0,SSE,5.8,-,N/A,,Mostly Cloudy,160,2014-01-01 22:56:00
6:56 PM,39.9,34.0,79,30.27,10.0,Calm,Calm,-,N/A,,Mostly Cloudy,0,2014-01-01 23:56:00
7:56 PM,39.0,34.0,82,30.25,10.0,Calm,Calm,-,N/A,,Mostly Cloudy,0,2014-01-02 00:56:00
8:56 PM,41.0,35.1,79,30.23,10.0,Calm,Calm,-,N/A,,Mostly Cloudy,0,2014-01-02 01:56:00
9:56 PM,42.1,37.0,82,30.22,10.0,Calm,Calm,-,N/A,,Overcast,0,2014-01-02 02:56:00
10:56 PM,42.1,37.9,85,30.19,10.0,Calm,Calm,-,N/A,,Overcast,0,2014-01-02 03:56:00
11:43 PM,44.1,37.9,79,30.16,10.0,Calm,Calm,-,N/A,,Overcast,0,2014-01-02 04:43:00
11:56 PM,46.0,36.0,68,30.16,10.0,Calm,Calm,-,N/A,,Overcast,0,2014-01-02 04:56:00